Location: Wangen+im+Allg�u
(47.7098°N, 9.8383°E)
Time: 05:06:40
(UTC+01:00)

OTV 5 (USA 277) - Visible Passes

Search period start: 22 January 2018 00:00
Search period end: 01 February 2018 00:00
Orbit: 404 x 417 km, 43.0° (Epoch: 07 September)

Date Brightness Start Highest point End Pass type
(mag) Time Alt. Az. Time Alt. Az. Time Alt. Az.
23 Jan ? 19:17:08 10° SSW 19:18:11 14° S 19:18:11 14° S visible
24 Jan ? 18:26:54 10° S 18:28:32 13° SSE 18:29:40 11° SE visible
24 Jan ? 20:02:13 10° SW 20:02:26 11° SW 20:02:26 11° SW visible
25 Jan ? 19:11:24 10° SW 19:13:51 25° S 19:13:51 25° S visible
26 Jan ? 18:20:41 10° SSW 18:23:20 22° SSE 18:25:15 14° ESE visible
26 Jan ? 19:57:04 10° WSW 19:58:01 17° WSW 19:58:01 17° WSW visible
27 Jan ? 19:06:07 10° WSW 19:09:13 34° S 19:09:24 34° SSE visible
28 Jan ? 18:15:14 10° SW 18:18:15 31° S 18:20:46 13° ESE visible
28 Jan ? 19:52:05 10° WSW 19:53:32 21° WSW 19:53:32 21° WSW visible
29 Jan ? 19:01:04 10° WSW 19:04:13 36° S 19:04:55 32° SSE visible
30 Jan ? 18:10:05 10° WSW 18:13:14 36° S 18:16:21 10° ESE visible
30 Jan ? 19:47:14 10° WSW 19:49:06 22° SW 19:49:06 22° SW visible
31 Jan ? 18:56:09 10° WSW 18:59:11 31° S 19:00:34 22° SSE visible
